RH
34 44 52 51 51 46 41 47 49 43 40 41 44 47 48 50 52 47 48 48 43 53 53 43 48 44 40 40 35 36 36 38 42 41 42 42 41 39 35 35 35 36 37 34 33 34 36 37 41 46 46 54 61 56 53 54 60 61 56 59 61 56 55 54 53 55 54 51 50 50 49 50 53 55 54 53 52 50 49 51 52 51 49 46 46 48
35 50 55 43 38 39 40 45 45 44 41 37 39 42 43 46 48 42 46 47 41 51 53 42 47 46 40 39 36 36 38 41 44 43 44 44 43 40 36 37 36 37 37 34 34 36 37 38 42 46 48 57 60 55 53 56 63 57 50 56 57 52 52 50 52 53 50 49 48 48 49 49 52 53 52 50 46 45 45 47 48 46 44 41 41 44
43 52 49 36 34 37 41 42 43 46 45 40 36 37 43 46 46 44 45 45 42 53 53 41 47 47 38 37 37 36 38 42 43 42 46 46 44 42 38 37 37 38 38 37 36 37 37 39 43 49 51 54 55 54 54 58 60 51 48 53 50 49 49 46 47 46 47 50 47 45 47 47 47 47 46 43 40 39 41 42 41 39 39 40 43 45
50 48 39 37 41 43 43 43 47 50 44 43 44 42 47 47 45 49 51 48 46 51 51 49 56 52 39 38 38 35 36 41 43 41 45 47 44 44 40 38 38 38 40 41 39 37 39 41 45 50 53 52 53 56 57 60 58 47 48 52 46 45 48 48 46 41 45 48 43 42 43 43 43 41 39 38 38 39 39 39 38 36 37 39 42 44
50 40 33 39 46 46 45 45 52 55 46 47 53 49 48 47 44 47 48 48 49 52 54 59 64 54 44 44 42 38 39 44 46 44 46 47 44 44 42 38 39 39 41 42 40 40 40 42 45 50 53 52 53 58 60 60 56 46 47 52 47 43 46 51 47 37 41 43 40 41 42 44 45 42 40 41 40 39 37 38 37 37 38 39 40 41
46 36 35 43 45 40 42 47 50 54 49 46 53 52 47 46 46 47 45 46 52 54 54 58 60 53 46 44 42 42 41 43 47 49 51 48 43 45 43 38 39 40 41 43 40 40 41 41 45 50 53 52 54 60 60 57 54 49 45 47 47 42 43 51 45 35 39 40 39 41 41 43 44 42 42 42 42 41 39 39 38 39 39 40 40 40
43 36 40 47 43 35 40 46 45 50 53 48 49 50 47 44 47 49 46 47 53 51 49 52 54 54 49 42 41 41 39 43 50 53 55 51 45 46 46 41 41 41 42 44 42 39 41 43 45 51 53 51 54 60 60 55 52 49 44 42 43 40 43 50 42 35 40 40 39 40 41 43 42 42 42 41 43 43 42 42 41 42 43 44 44 45
43 43 47 48 39 35 42 44 42 48 54 51 48 49 49 45 46 47 45 49 50 45 50 51 46 52 52 43 42 43 40 46 56 58 58 55 48 47 48 45 43 44 44 46 45 40 41 45 48 53 54 51 53 59 60 55 51 49 44 41 40 38 45 48 38 35 39 39 39 41 43 43 41 42 42 42 43 43 44 45 45 47 48 48 48 49
46 47 53 51 41 39 45 42 40 47 52 51 49 48 48 47 51 50 46 49 47 45 55 50 41 51 53 43 44 48 46 52 61 64 63 61 52 48 51 49 46 45 45 47 46 42 44 49 52 55 55 52 54 59 59 53 49 46 42 41 39 41 48 44 34 34 37 39 41 43 44 42 41 42 44 45 44 45 48 50 50 52 51 49 49 50
45 43 51 52 44 44 47 40 38 45 49 48 48 49 50 51 54 55 52 50 47 49 55 46 41 53 54 46 46 49 50 57 63 64 66 64 55 50 51 50 49 48 48 49 44 43 51 55 55 57 56 53 55 59 58 52 49 46 43 42 41 46 49 40 34 36 37 40 41 43 44 42 42 44 46 48 49 51 54 55 55 54 52 51 51 52
44 47 54 50 43 43 47 45 43 47 49 51 54 55 58 56 51 53 52 48 49 55 51 41 41 52 59 53 46 50 55 61 67 66 69 66 55 54 51 50 52 50 50 51 44 47 58 60 57 56 54 53 57 60 58 53 49 46 45 43 42 48 47 37 34 37 38 40 41 43 43 42 44 47 50 53 54 55 57 56 57 57 55 53 52 52
47 49 48 45 45 45 46 46 47 51 52 54 52 49 55 53 45 48 49 46 55 59 48 42 42 50 63 56 46 58 67 70 72 71 73 68 57 57 52 49 52 50 51 51 48 56 63 61 59 55 52 55 60 61 57 53 48 45 46 43 43 48 41 33 35 37 39 40 40 42 44 43 45 49 53 56 55 56 57 57 58 58 57 54 52 52
47 48 43 42 46 43 40 41 44 46 44 45 45 47 55 53 48 55 53 47 53 51 42 43 45 49 56 47 42 62 75 74 73 71 70 64 59 57 51 49 52 50 51 50 53 64 66 63 60 54 52 57 60 58 54 52 46 44 46 41 42 47 40 34 37 38 39 40 40 42 45 45 46 51 55 55 54 56 58 59 61 59 58 57 55 55
45 50 48 44 42 38 37 39 43 44 42 44 46 51 60 59 63 69 60 53 55 50 41 41 45 52 55 45 43 57 66 68 70 71 67 59 57 57 49 49 51 49 50 48 56 68 66 63 59 52 54 57 58 55 52 53 46 44 46 41 43 47 40 36 38 39 40 39 40 44 45 45 48 54 56 54 55 57 59 60 61 60 59 59 59 59
42 45 48 47 39 36 41 42 44 49 53 52 44 46 55 57 65 71 67 67 68 60 50 47 50 55 57 53 48 51 57 61 64 67 63 55 54 55 50 49 50 50 49 48 59 69 64 61 58 53 54 56 56 54 53 54 47 43 44 40 44 46 38 36 39 39 40 39 41 45 46 47 50 54 56 54 56 57 59 61 60 59 59 59 61 61
40 37 45 50 38 32 41 43 44 52 56 50 42 47 56 52 52 61 66 64 67 69 61 53 51 44 44 51 49 51 58 58 58 59 58 55 53 52 50 49 49 51 49 50 63 71 64 60 55 53 56 56 55 53 53 53 46 43 42 39 44 45 36 37 40 40 41 40 42 46 47 48 51 53 55 56 57 57 58 60 59 58 59 60 61 61
44 39 44 50 42 36 40 41 45 52 51 46 46 51 56 51 46 58 68 57 58 73 61 47 52 48 46 53 49 51 58 55 53 55 55 56 53 49 49 50 50 50 50 51 60 68 65 58 53 52 55 55 53 52 54 52 43 41 41 39 43 44 37 39 41 40 41 42 43 47 47 48 51 52 55 57 57 56 56 56 56 57 59 60 61 62
48 48 45 43 45 48 48 46 47 50 52 51 49 49 53 56 50 56 71 64 62 72 57 46 61 62 60 63 53 50 55 52 52 54 55 56 52 46 47 50 49 48 50 50 53 62 63 56 53 54 55 54 51 50 53 49 40 40 40 39 44 44 39 40 41 38 41 43 45 48 49 50 52 51 53 56 55 54 54 54 55 56 58 59 61 62
47 53 45 35 42 50 50 49 48 48 54 55 47 42 50 64 64 59 66 70 74 78 65 55 62 61 60 64 59 54 53 51 54 57 57 58 52 45 45 49 48 47 51 51 52 63 64 56 56 56 54 54 50 49 52 46 39 39 39 38 44 45 40 41 41 38 40 43 45 48 50 52 53 51 52 53 52 52 52 54 56 56 56 58 61 62
44 50 47 41 44 46 42 44 46 47 52 54 49 44 46 56 62 59 59 63 71 79 75 68 66 62 58 56 53 50 47 50 58 61 61 60 53 44 45 50 49 50 54 53 52 59 61 58 58 55 53 54 51 51 54 47 38 39 39 38 44 45 41 41 40 38 40 43 45 48 49 51 52 51 51 52 51 50 50 53 56 55 55 58 61 61
43 44 47 49 49 46 43 43 42 40 44 49 51 51 52 51 54 59 59 58 63 72 78 79 74 62 51 47 46 45 46 52 58 60 61 60 52 44 45 50 50 52 55 53 51 56 59 60 60 55 52 53 51 53 55 47 39 39 38 38 43 44 42 42 40 38 40 43 47 50 50 50 50 50 51 52 51 51 50 52 55 54 54 58 60 61
48 45 48 50 48 47 46 43 40 40 42 46 48 51 53 54 61 69 68 61 61 65 69 77 80 66 47 42 43 44 49 52 53 59 63 60 51 43 44 49 50 52 54 52 50 54 60 63 61 58 55 52 51 54 56 48 39 40 38 37 43 45 43 42 39 38 41 44 48 51 49 48 48 49 51 52 52 51 50 51 53 52 53 57 60 61
51 48 53 51 49 49 45 40 42 46 46 47 48 47 49 53 58 67 72 69 69 66 61 69 81 68 44 42 46 47 52 54 54 61 64 57 48 43 44 47 49 51 51 50 50 54 62 66 65 63 60 56 53 55 56 48 39 40 39 38 44 46 44 42 38 38 43 45 48 49 50 49 47 48 51 52 51 50 49 49 51 51 52 55 58 60
53 47 54 53 46 48 47 40 44 51 50 50 48 45 50 56 56 61 66 69 77 76 64 71 85 68 44 46 49 47 50 53 54 56 55 50 45 42 44 45 47 49 48 50 53 55 61 68 69 67 63 58 56 57 56 46 38 39 39 39 45 47 45 42 38 40 45 46 47 48 48 49 48 49 51 51 52 51 49 49 50 50 51 53 57 59
63 45 50 55 43 43 48 44 48 55 51 46 47 49 56 61 64 68 65 66 79 78 64 74 85 62 39 40 40 38 42 44 45 46 46 48 47 43 44 46 47 50 50 54 60 60 64 72 72 68 62 59 58 57 53 44 38 39 38 40 45 47 46 43 39 42 46 46 47 47 47 49 49 50 51 51 50 49 46 47 49 49 49 52 55 57
69 48 44 49 42 41 46 43 44 50 48 45 50 57 63 66 68 68 66 73 83 73 60 71 76 54 38 38 37 38 40 40 43 46 47 48 47 45 48 50 50 50 53 59 62 64 72 76 72 66 62 60 59 57 50 41 38 38 38 41 45 46 46 43 40 44 46 45 46 47 47 49 49 50 51 50 48 46 44 45 47 47 47 50 53 55
62 50 48 46 42 42 42 39 38 41 46 50 54 62 68 72 70 65 69 77 77 69 63 64 63 57 50 44 41 41 41 42 46 47 49 49 46 47 51 52 51 50 54 60 61 65 75 78 71 67 63 59 58 56 48 40 38 39 39 41 45 47 47 44 43 45 45 44 45 46 47 48 49 50 51 49 47 46 44 44 45 45 47 49 51 53
55 53 58 52 52 51 43 38 36 37 44 46 49 61 73 79 74 69 72 70 65 69 66 53 53 62 57 46 44 44 42 44 48 48 50 49 45 47 51 52 52 50 54 61 62 67 78 78 71 66 62 59 58 55 48 40 38 40 39 40 45 48 47 46 46 46 45 43 43 44 46 47 48 50 49 46 44 44 43 43 43 44 47 49 50 52
53 53 61 55 52 52 47 44 40 42 46 45 47 55 66 79 80 71 69 64 62 69 63 50 54 62 55 47 45 44 42 45 47 46 48 47 45 48 51 53 55 54 58 64 65 71 80 78 70 66 63 59 58 55 48 42 41 41 40 41 45 48 47 48 47 45 45 44 43 44 45 45 47 48 47 44 43 43 43 43 43 44 46 48 50 53
56 56 66 62 55 51 49 49 50 51 50 48 53 54 56 69 76 71 66 63 65 69 62 57 63 62 53 48 45 43 42 43 44 46 49 51 49 50 53 56 56 57 61 66 68 73 80 76 69 66 63 59 58 55 47 42 44 43 40 42 47 49 48 48 47 45 45 44 43 45 45 44 46 47 45 44 44 44 43 45 45 45 48 50 51 54
54 53 58 58 58 53 47 50 54 56 55 50 50 53 55 61 68 71 70 67 70 74 68 67 74 68 53 46 44 43 42 43 47 50 53 55 53 53 55 57 58 59 64 68 70 75 78 75 70 67 62 59 58 53 46 43 45 44 41 45 50 51 49 48 46 45 45 43 43 45 45 45 46 47 46 45 45 44 45 47 48 49 51 52 54 57
53 54 53 52 58 54 47 53 57 56 60 60 56 56 55 58 65 69 69 71 71 69 67 71 75 66 51 43 44 43 44 48 52 55 59 59 56 55 57 58 59 62 67 70 71 76 78 75 70 67 62 59 56 52 46 45 47 45 45 49 52 51 48 46 43 43 43 42 43 44 44 45 48 48 47 46 46 47 49 51 52 54 56 57 58 61
58 59 54 51 60 57 45 49 54 55 61 61 57 58 55 55 62 62 61 67 65 57 62 68 62 51 43 43 46 47 48 53 56 57 60 60 58 57 56 57 61 65 70 72 72 76 79 74 69 66 61 57 55 52 47 46 47 47 49 51 52 49 46 43 42 40 40 41 43 43 44 47 50 50 50 51 52 53 55 56 58 60 61 62 63 64
64 64 57 49 57 61 51 47 50 54 59 52 45 49 48 46 53 57 57 60 57 51 55 56 48 42 43 46 49 51 52 55 57 57 56 58 60 59 57 59 65 69 72 72 73 77 77 72 68 64 59 57 57 52 46 44 45 48 50 51 50 47 43 42 41 40 40 42 43 43 45 49 52 54 55 56 58 60 63 66 68 68 67 68 69 69
62 61 56 51 59 64 58 51 44 40 42 43 43 47 44 41 46 53 55 55 54 52 51 50 47 46 46 46 47 51 55 57 58 57 58 61 63 62 63 66 70 73 73 74 78 81 77 72 67 62 59 59 56 49 43 42 45 47 49 50 48 45 42 40 40 38 40 42 43 44 48 52 55 58 61 62 66 70 74 76 76 76 75 75 75 74
59 60 57 57 62 61 54 49 39 28 28 38 50 52 50 51 53 53 53 53 53 52 52 54 53 48 46 48 48 54 60 63 63 62 62 66 67 67 70 72 72 73 73 76 80 81 77 74 68 62 60 59 52 46 43 42 43 46 48 48 47 44 40 38 37 37 40 43 44 46 51 55 59 63 67 69 73 77 80 81 82 83 83 82 80 80
52 57 59 57 52 49 53 56 46 36 37 46 55 54 50 52 53 51 51 49 45 44 46 51 51 48 48 51 54 61 67 70 72 68 66 70 72 70 71 71 70 72 75 77 80 80 79 75 67 60 60 58 49 43 42 42 41 45 47 46 45 43 39 37 37 39 42 44 46 50 55 59 64 69 72 74 78 82 82 83 85 86 88 88 87 87
53 55 55 54 50 48 57 65 58 45 42 48 57 57 51 49 52 55 59 56 46 39 40 46 49 50 53 58 63 68 72 76 77 70 68 74 75 72 72 69 65 71 78 80 80 81 78 73 67 62 59 55 46 42 43 41 42 47 46 44 44 43 39 38 39 41 43 44 47 53 59 64 69 74 76 75 78 82 83 81 82 84 87 90 92 92
59 58 56 59 62 56 54 61 60 47 42 52 61 60 54 54 60 64 63 60 53 45 44 48 53 55 59 64 67 70 77 84 78 69 71 77 75 73 75 70 64 72 82 81 81 81 77 71 69 63 56 51 47 45 42 37 40 48 46 43 45 42 39 42 42 41 43 46 49 55 60 65 69 74 77 78 78 81 82 81 82 83 83 86 92 96
65 65 67 71 72 65 59 63 60 44 39 52 60 58 57 60 63 61 56 56 58 57 52 52 58 61 62 64 66 71 80 82 74 69 71 74 72 70 70 67 65 72 81 82 82 81 76 72 70 62 57 54 51 47 40 34 40 48 45 43 44 41 42 45 42 39 42 46 51 56 60 63 67 69 74 78 79 79 79 81 85 85 82 83 89 93
71 67 67 71 71 67 64 67 64 49 43 52 57 58 64 67 61 56 54 54 55 53 47 47 55 61 61 63 68 73 75 69 67 73 74 73 74 70 63 63 66 71 78 81 81 81 77 74 70 63 58 56 52 47 40 36 43 49 45 43 45 44 44 43 37 37 41 44 51 57 59 63 68 69 71 74 77 78 75 77 83 86 84 85 89 92
59 60 63 67 67 63 61 67 66 52 48 59 66 66 68 63 51 46 49 47 45 45 43 45 54 58 60 65 70 72 71 64 67 78 80 78 79 72 63 66 74 78 81 82 82 84 81 76 70 62 57 56 54 50 44 40 46 50 45 46 49 45 40 36 35 38 42 44 49 53 55 60 67 73 77 76 78 79 77 76 79 82 84 88 92 95
48 56 65 69 65 57 60 69 62 46 48 62 65 63 65 58 39 31 38 41 40 44 46 48 54 59 62 67 70 71 72 69 66 72 78 79 79 71 63 68 77 82 84 82 83 85 83 78 70 62 59 58 56 52 45 40 46 50 47 48 49 41 33 33 36 39 42 45 49 51 53 55 60 69 79 81 82 84 82 80 81 81 83 89 96 98
45 47 49 52 51 49 56 62 51 44 59 65 47 37 46 47 35 31 39 41 38 41 46 50 57 62 61 65 70 71 73 71 65 65 72 78 78 72 65 64 71 79 83 83 83 84 83 79 71 61 57 59 58 54 45 39 44 51 49 47 45 36 31 34 37 39 42 44 48 51 53 54 56 62 70 76 83 87 86 85 85 84 84 89 95 98
42 41 38 38 42 43 45 45 35 31 47 54 42 31 31 31 31 34 39 41 40 41 46 52 61 64 61 63 70 72 73 72 66 62 67 75 78 73 67 65 68 74 80 82 82 82 82 81 74 63 57 57 58 57 48 38 40 48 47 42 39 33 32 35 36 38 42 44 47 52 54 54 56 58 61 68 78 85 86 87 87 87 88 92 96 98
37 39 37 40 49 45 34 31 28 23 27 35 37 38 35 32 34 37 39 43 46 47 51 56 62 65 63 64 70 73 73 70 67 64 66 73 77 71 65 66 69 72 77 81 81 80 82 82 76 66 60 58 56 56 53 42 37 41 41 38 35 33 33 36 37 39 44 46 49 53 56 58 58 57 58 63 70 77 81 82 85 89 93 96 99 101
42 43 39 40 47 42 30 28 29 27 27 28 27 31 35 36 38 40 43 47 48 51 58 62 62 64 66 67 71 76 75 70 67 67 68 74 79 74 67 68 71 72 76 81 80 80 83 82 76 69 65 62 58 57 56 48 40 39 38 35 33 34 35 37 39 42 47 50 52 55 61 65 65 62 60 61 63 70 76 77 81 91 98 100 102 102
41 42 41 42 43 37 30 27 25 24 27 27 26 28 31 33 37 42 47 50 52 57 61 61 61 67 71 72 75 77 77 73 70 68 70 76 79 75 69 68 70 72 77 81 80 81 84 83 78 73 69 67 63 60 57 51 43 38 36 32 32 34 35 37 42 48 52 54 56 62 66 68 70 72 71 65 60 63 69 76 86 97 101 100 102 103
40 38 38 42 44 43 38 30 28 31 32 30 32 36 37 39 43 46 50 55 61 65 67 66 65 67 69 72 76 77 76 75 72 67 70 77 79 75 70 68 69 73 77 80 80 81 83 85 82 76 73 71 67 61 58 55 46 38 33 31 32 34 35 37 44 51 54 57 62 68 70 69 71 77 80 78 72 65 61 65 83 101 104 99 99 102
42 37 36 41 43 43 37 29 28 33 32 28 31 40 45 46 48 51 55 58 60 63 69 72 70 68 67 67 70 74 78 77 70 63 68 75 74 70 68 67 69 75 78 79 81 82 84 88 85 79 77 76 70 63 60 58 49 39 32 30 31 34 35 38 45 51 54 60 67 71 71 72 74 78 81 84 85 81 69 58 61 77 94 102 102 100
35 30 33 40 39 31 23 21 26 31 29 25 27 36 46 51 54 57 57 56 55 56 62 68 70 72 74 71 65 69 78 78 67 62 70 74 68 66 68 68 70 76 78 79 81 83 85 88 86 82 81 80 74 68 65 61 52 40 33 30 31 34 37 40 47 52 55 60 66 68 70 75 78 81 85 85 84 87 87 77 62 54 64 84 98 101
Wind_Speed
4 7 6 4 4 5 5 5 4 4 3 4 4 4 4 3 1 1 2 2 1 3 4 4 3 5 3 5 4 3 2 0 3 5 5 7 7 8 9 9 8 7 9 15 19 20 21 22 21 23 24 24 26 26 26 28 28 29 31 29 29 32 30 29 30 31 32 32 31 30 30 30 30 29 29 28 28 28 29 30 30 30 30 31 32 31
3 9 6 4 3 4 3 4 5 4 4 1 2 3 3 2 2 2 2 2 1 1 3 4 4 6 5 5 5 4 3 1 2 4 6 8 8 7 9 9 7 6 9 14 16 18 20 21 22 24 23 23 25 26 26 28 28 30 31 28 30 32 30 29 29 31 32 31 30 29 29 30 29 29 29 28 28 29 30 30 29 30 31 32 32 31
7 9 5 4 3 4 2 3 4 4 5 3 2 1 1 1 1 0 1 2 2 2 3 5 4 7 5 5 6 5 4 3 1 2 5 6 8 9 8 7 7 7 8 10 13 16 19 20 22 23 23 22 24 25 27 28 28 31 31 29 31 31 30 30 29 31 31 30 29 28 28 29 28 28 28 27 28 29 29 29 29 30 31 32 32 32
7 5 5 5 5 5 5 7 7 5 4 3 4 2 1 2 1 0 1 1 2 1 3 6 6 6 5 4 5 5 4 4 2 3 5 5 7 9 9 8 8 9 9 9 10 13 16 18 20 21 23 24 24 25 26 28 28 31 31 30 31 31 30 29 29 32 31 28 29 28 28 28 27 27 27 27 29 30 31 30 31 32 32 32 32 32
7 4 5 3 4 4 4 7 8 5 3 4 5 3 1 3 2 1 2 1 2 1 2 4 5 4 3 4 4 5 4 5 5 2 6 7 7 8 7 6 7 8 9 9 8 10 14 16 18 21 23 24 24 24 26 27 28 30 31 29 30 30 28 27 30 33 31 29 29 29 28 28 28 28 28 28 30 31 32 32 33 33 33 33 32 31
6 6 6 4 3 1 2 5 7 4 3 2 3 4 3 5 4 4 3 1 2 3 2 1 4 3 3 5 3 4 4 4 5 2 7 7 7 7 6 5 6 7 7 7 8 10 13 15 17 20 22 23 23 23 25 26 27 28 30 29 29 30 28 27 30 32 31 29 29 29 29 28 28 27 28 28 29 29 30 31 32 32 32 32 31 31
6 9 8 5 1 2 3 4 6 4 3 2 1 2 4 4 4 5 3 1 1 3 3 2 1 3 2 5 4 4 3 4 5 5 6 5 7 6 6 5 5 6 6 6 8 11 13 15 16 18 21 22 22 22 24 26 26 27 29 29 29 30 28 28 31 32 31 29 29 28 27 27 26 26 27 28 28 28 28 29 30 30 31 31 31 31
5 9 10 7 2 2 5 5 5 5 3 2 3 2 2 3 4 3 2 3 2 4 2 2 2 3 2 3 4 4 2 3 5 5 4 4 7 7 6 5 6 6 6 5 7 9 11 15 17 18 21 22 21 22 24 26 27 27 29 28 28 29 28 28 30 31 30 29 28 27 27 27 26 25 27 28 28 27 27 28 28 28 29 29 30 30
2 4 7 6 4 4 4 4 3 3 1 2 3 2 2 3 4 3 3 3 4 4 2 1 2 3 3 2 2 3 2 5 3 2 3 5 7 7 6 5 6 6 6 6 7 8 11 15 17 18 20 22 21 21 23 25 26 27 28 27 28 28 27 28 30 30 29 28 27 26 27 27 27 26 27 27 27 27 28 28 28 28 29 29 29 29
2 2 5 3 5 4 3 5 2 3 1 2 2 2 2 2 3 3 3 3 4 3 1 2 2 2 3 2 1 3 2 4 1 1 2 5 6 7 5 4 5 5 4 6 7 8 13 16 17 18 19 20 20 20 23 23 24 26 26 26 27 27 27 28 29 29 29 28 27 26 27 28 28 28 28 28 27 28 29 29 28 29 29 29 29 29
4 3 3 1 2 2 5 5 3 5 2 2 1 3 4 3 2 2 2 2 3 2 2 3 2 3 1 1 2 1 2 3 3 1 3 5 6 7 5 3 4 4 4 4 7 8 13 14 15 17 17 19 20 21 23 22 23 26 25 25 27 26 27 28 28 29 28 28 27 27 28 28 29 29 29 29 29 29 30 30 29 30 30 30 30 31
1 1 1 1 1 3 4 3 2 4 3 2 2 5 3 1 0 1 1 1 2 3 2 2 3 3 2 3 2 3 4 5 5 3 5 5 6 6 4 3 3 4 4 4 5 7 10 12 14 16 17 18 19 21 22 22 24 25 24 25 26 26 27 28 28 28 27 27 27 27 27 28 28 29 29 29 29 29 30 30 30 31 31 31 31 32
2 3 1 2 1 4 4 2 2 1 2 3 5 6 5 3 2 2 1 0 2 3 3 1 3 1 4 5 2 4 6 7 7 6 5 4 6 6 4 3 3 3 4 4 4 5 8 10 13 15 16 17 19 21 22 22 24 25 24 25 26 26 27 28 27 27 27 27 27 27 27 27 28 27 27 28 28 29 30 30 31 32 32 32 32 32
3 3 3 1 1 5 6 4 3 3 4 6 5 4 3 3 3 3 3 3 3 2 4 4 2 2 5 3 2 5 7 7 7 7 5 3 5 6 3 3 3 3 3 4 4 5 6 10 13 15 16 16 18 21 22 21 24 25 24 24 25 25 27 27 27 27 26 26 26 26 26 27 27 27 27 27 27 29 30 30 30 31 31 31 32 32
1 2 4 3 1 3 5 4 1 2 3 5 3 2 2 2 2 2 2 3 4 4 8 7 2 2 5 3 4 5 5 6 6 6 5 2 3 6 3 4 4 4 4 4 4 5 8 12 14 15 16 17 18 21 21 21 24 24 23 24 24 25 27 27 26 26 26 26 26 25 26 27 27 26 26 26 26 28 30 30 30 31 31 31 31 31
1 1 2 2 2 2 3 2 3 2 2 4 2 2 1 1 1 1 3 4 5 5 5 2 0 2 2 1 4 3 3 4 5 5 3 2 4 6 2 4 4 3 4 4 4 4 9 13 14 14 16 17 17 19 20 21 23 23 22 23 23 24 26 25 26 26 25 25 25 25 25 26 26 26 26 26 27 29 29 29 30 30 31 31 31 31
1 2 2 1 2 3 4 1 2 2 1 2 2 2 1 2 4 0 4 5 4 3 3 2 3 4 3 1 3 3 3 4 2 1 2 3 4 5 1 4 3 4 4 4 4 5 8 11 13 14 15 16 17 18 18 20 22 21 20 22 22 23 25 25 25 25 24 25 25 24 25 26 26 26 26 27 28 30 29 28 29 30 30 31 31 31
0 3 3 2 1 1 2 2 1 3 2 1 2 2 1 2 4 2 2 3 3 3 3 4 6 7 5 3 3 2 3 6 3 2 3 4 4 5 1 5 3 4 4 5 5 6 8 10 12 14 14 15 16 16 17 20 21 19 19 20 20 22 25 25 25 25 24 25 24 24 25 26 26 26 26 27 28 29 29 29 30 30 30 30 30 30
1 1 3 1 2 1 1 4 3 3 2 1 2 1 1 2 1 1 1 1 3 4 4 5 6 6 4 3 4 5 7 7 5 3 4 4 6 5 3 5 3 3 4 4 4 4 5 8 12 13 14 15 16 15 17 21 21 18 18 18 19 20 23 23 24 24 24 24 24 24 25 25 25 26 27 27 28 29 28 29 30 30 30 30 30 30
0 1 2 2 3 1 1 2 1 1 1 2 2 1 2 2 2 2 1 2 2 3 5 6 7 5 4 4 4 7 8 7 5 4 3 4 8 5 4 4 2 3 4 4 2 2 5 7 10 12 13 15 16 15 18 21 20 17 17 18 18 20 22 22 23 24 24 24 23 24 25 25 25 26 27 27 28 28 28 29 29 30 30 30 30 31
1 1 2 3 3 2 1 1 0 1 1 1 2 2 2 1 1 1 1 1 0 2 3 5 6 6 3 3 4 7 7 5 5 4 2 5 8 4 5 4 3 4 3 3 3 3 6 6 8 11 12 14 16 15 18 21 19 17 17 17 18 19 21 22 23 24 24 24 23 24 25 25 26 27 27 28 28 28 29 30 29 29 30 30 31 31
2 1 2 3 3 2 2 1 2 1 2 2 0 1 1 1 1 1 2 1 1 1 3 3 6 7 3 3 4 6 5 4 4 3 3 6 6 3 6 4 4 5 1 4 2 5 6 5 7 10 11 14 15 15 17 19 18 16 16 16 17 18 20 22 23 24 24 24 24 24 25 25 26 27 26 28 29 28 30 31 29 30 31 31 31 31
1 1 2 4 4 1 0 0 2 2 1 1 0 2 2 2 2 2 3 2 1 2 4 3 4 6 3 5 5 5 4 4 4 4 5 6 5 3 5 4 4 4 2 2 3 7 6 4 5 10 11 14 15 15 17 18 17 15 15 15 16 17 19 21 22 23 23 23 24 24 24 25 26 26 27 28 29 29 30 31 30 30 31 31 31 31
1 1 2 5 3 1 1 2 1 3 3 1 2 2 2 2 3 2 1 1 2 3 3 2 4 6 3 4 4 4 4 4 4 4 4 6 6 3 5 3 4 2 2 2 6 8 6 4 4 8 10 12 14 15 16 17 16 14 14 15 16 17 19 20 21 22 22 23 24 24 24 25 26 26 27 28 29 30 31 31 30 30 31 31 31 31
1 1 1 3 4 3 3 2 3 3 2 1 2 1 3 4 4 1 0 2 1 5 4 2 4 7 5 4 5 7 7 7 5 4 4 6 7 1 4 3 3 1 3 4 5 6 6 4 3 6 8 10 13 15 16 17 16 14 14 15 15 16 18 20 21 22 22 23 24 24 24 25 26 26 27 28 29 30 31 31 31 31 31 31 31 31
1 1 1 1 2 3 4 4 3 2 2 2 2 3 2 4 6 3 0 1 2 4 4 3 6 10 10 10 11 12 11 10 8 5 4 6 6 1 4 3 2 0 3 5 5 5 4 3 3 6 7 10 13 15 16 17 15 14 15 15 15 16 17 19 21 21 21 23 23 24 24 25 26 27 27 28 29 30 31 32 31 32 31 30 31 31
0 2 3 3 4 4 6 7 5 3 4 5 3 4 4 4 6 4 2 2 4 2 4 6 7 11 14 14 14 14 12 10 8 6 5 6 5 2 5 3 1 1 3 5 4 4 4 2 4 5 6 10 12 14 16 16 15 14 15 15 15 15 17 19 20 20 21 22 23 23 24 25 26 26 27 28 29 30 31 32 32 32 31 30 30 30
1 4 3 3 7 8 8 11 9 5 7 9 8 6 6 6 6 6 5 6 2 2 6 7 4 9 15 15 15 15 13 9 8 8 6 6 3 3 4 3 0 1 3 4 4 4 4 2 3 3 5 9 11 13 15 15 14 13 14 15 15 15 17 18 19 20 20 21 22 23 24 25 26 26 27 28 29 29 31 32 32 32 31 30 30 29
1 3 2 0 6 10 10 13 12 7 8 10 10 8 6 7 9 10 11 9 2 2 9 9 9 12 15 15 15 14 12 10 9 8 6 6 4 4 4 2 1 2 4 4 5 4 4 1 3 2 5 9 10 12 15 14 13 13 13 14 14 15 16 17 18 18 19 19 21 22 24 25 26 26 27 28 29 30 31 32 32 33 32 31 30 29
1 2 1 0 7 12 11 11 9 8 7 9 11 11 8 9 11 12 12 9 6 9 13 13 15 16 14 14 14 12 10 8 8 7 6 7 5 4 3 1 2 2 3 4 5 4 3 1 3 2 5 9 9 11 13 13 12 13 13 13 14 15 16 17 17 18 18 19 20 21 23 25 26 26 27 28 29 29 30 31 32 32 32 31 30 29
0 1 1 1 5 10 8 5 4 7 8 10 12 11 8 9 10 10 10 8 6 10 13 12 14 14 12 11 10 9 9 8 9 8 7 6 4 3 3 1 2 2 3 4 4 3 2 1 2 2 5 8 9 10 11 12 12 12 12 13 13 14 15 16 17 17 18 19 20 21 22 24 25 26 27 28 29 30 30 30 31 31 31 31 30 30
0 1 2 2 4 7 4 2 5 7 7 9 13 13 9 8 7 7 7 6 7 8 9 8 8 9 8 7 8 9 9 9 10 8 6 6 3 4 2 1 2 2 3 4 4 3 1 2 1 2 6 8 7 9 10 11 11 11 12 13 13 14 14 15 16 17 17 18 20 20 22 23 24 25 26 27 29 29 30 30 30 31 31 31 31 31
1 1 2 2 2 5 3 4 8 7 5 5 8 8 8 7 6 6 5 7 9 7 5 6 8 9 8 8 10 10 10 9 9 6 6 6 3 3 1 0 1 3 4 4 3 2 2 1 1 2 6 7 7 9 9 9 10 11 12 13 13 13 14 14 15 16 17 18 19 20 21 22 23 24 25 27 28 28 29 30 30 30 31 31 31 31
2 1 2 1 1 5 7 9 8 5 2 4 3 3 5 5 6 7 7 8 9 7 5 7 9 10 9 9 9 10 10 8 6 6 6 3 2 3 2 2 2 3 3 3 3 4 3 2 1 3 6 6 7 8 8 8 9 10 11 11 12 13 13 14 15 15 16 18 18 19 21 21 22 23 25 26 27 28 29 29 30 30 30 30 30 30
2 2 2 0 1 4 7 8 7 3 4 5 2 3 2 2 1 5 8 9 10 9 9 10 11 11 10 9 8 8 8 6 6 8 5 2 5 4 2 2 2 3 4 2 3 4 2 2 1 3 5 6 7 7 7 8 9 11 11 11 12 13 13 14 14 15 16 17 18 19 20 21 21 22 24 25 26 27 28 30 30 30 29 29 29 29
2 1 2 1 2 3 4 4 1 6 10 8 4 3 2 3 3 3 8 9 8 9 10 9 10 10 8 8 8 6 6 6 7 6 1 5 5 5 3 1 2 3 3 1 3 2 3 4 3 3 4 6 7 7 7 9 9 10 11 11 11 12 13 13 13 15 16 17 18 19 20 21 22 22 23 25 26 27 28 30 31 30 28 28 28 27
1 1 1 1 2 1 3 3 4 7 10 7 2 0 2 2 1 1 4 7 6 6 6 6 9 9 7 8 8 5 6 6 7 4 2 5 5 4 4 4 4 4 2 2 1 4 6 5 3 3 4 5 6 7 8 9 9 9 9 10 11 11 12 12 13 14 16 16 18 19 20 20 21 22 24 25 26 26 28 29 30 29 27 27 27 26
2 1 0 0 1 0 1 4 4 5 6 4 4 2 1 2 2 6 1 7 5 2 3 5 8 8 7 8 7 5 6 6 6 5 2 4 4 4 5 5 5 4 4 3 3 5 7 5 3 2 4 5 5 6 8 9 8 7 8 9 10 11 12 12 12 14 15 16 17 18 19 19 20 21 24 25 25 26 27 28 29 29 27 26 26 26
2 2 0 1 2 1 0 2 3 3 6 6 5 3 0 1 4 7 3 6 4 2 4 7 8 8 7 7 5 5 5 6 7 5 4 6 5 6 6 6 5 4 5 3 3 5 7 5 2 2 3 4 5 7 9 9 7 6 7 9 9 9 10 11 13 14 14 15 16 17 18 18 19 20 23 24 24 25 26 27 27 28 28 27 26 26
1 2 2 2 3 3 2 3 3 4 7 7 4 4 2 3 6 6 5 6 5 5 6 6 7 8 7 5 3 2 2 5 7 4 5 7 7 8 8 5 4 6 6 5 5 5 7 5 3 2 3 4 6 8 8 8 6 5 7 8 8 8 9 11 12 13 13 14 15 16 17 18 18 20 22 23 24 25 26 26 26 27 28 28 27 26
1 2 3 2 3 4 4 4 4 5 7 5 3 5 4 4 4 3 5 6 6 6 6 5 7 8 6 4 2 2 5 6 3 2 6 7 6 7 7 4 3 5 6 6 6 6 7 6 4 4 4 5 6 7 7 7 5 5 7 7 7 8 9 10 11 11 12 14 15 16 18 18 19 20 22 22 23 25 26 26 26 26 27 27 26 26
1 2 2 1 2 4 4 3 4 6 4 2 5 3 3 2 1 4 6 5 5 6 7 5 6 6 5 5 5 5 6 6 3 5 6 6 6 6 6 5 5 5 5 5 7 8 8 7 6 5 4 5 6 6 6 6 4 5 7 7 7 9 10 10 10 11 12 14 15 16 18 19 19 20 21 22 23 24 26 26 26 27 27 25 25 25
3 2 2 3 4 3 1 1 3 6 4 5 6 2 1 3 5 6 5 4 5 6 7 6 6 6 5 6 6 6 7 7 5 5 7 6 6 7 7 8 8 9 8 7 8 10 9 8 7 6 5 6 6 6 6 6 5 6 7 7 8 10 10 9 9 11 12 13 14 16 18 19 21 22 22 22 23 23 25 26 26 27 27 25 25 24
3 4 3 3 3 3 2 3 4 5 5 7 6 3 5 7 7 5 5 6 6 5 5 5 6 6 5 6 7 7 6 7 7 5 6 6 6 8 9 8 8 10 11 9 9 11 11 9 7 6 6 6 6 6 7 6 6 7 8 8 9 10 9 8 10 11 13 14 14 16 17 19 21 23 23 23 23 23 25 25 25 26 26 25 24 23
6 6 3 3 4 4 4 7 9 7 5 6 7 8 10 10 9 7 7 8 7 5 4 4 6 6 5 6 6 6 6 6 7 6 6 6 6 8 9 8 7 8 9 10 11 12 11 10 8 6 6 7 7 7 7 8 8 8 9 9 10 10 9 8 10 12 13 14 14 15 17 19 20 22 24 24 24 24 25 25 25 25 24 23 22 21
6 4 3 2 3 2 5 11 13 12 12 10 9 9 11 11 9 8 7 7 7 6 5 5 6 7 5 5 5 6 6 7 7 6 6 6 6 8 9 9 8 8 9 10 11 12 12 11 9 7 7 7 8 9 9 9 9 10 10 10 10 10 9 9 10 12 13 13 14 15 16 18 20 21 22 24 24 24 24 24 25 25 24 22 21 21
2 3 2 3 2 2 5 10 10 10 12 12 9 8 9 10 9 7 7 7 7 7 6 6 7 6 5 6 6 7 7 7 7 6 6 5 6 8 10 10 10 10 11 11 12 13 12 11 11 9 8 8 9 10 10 10 11 11 11 11 10 10 9 9 10 12 12 13 14 15 16 18 19 20 21 23 24 25 25 24 25 25 25 25 23 22
1 2 2 5 4 4 8 13 12 11 13 13 11 9 8 8 9 8 7 7 7 6 7 7 6 5 5 6 7 7 7 7 7 6 5 5 6 9 11 12 11 11 11 12 12 13 13 13 12 11 10 10 10 10 11 11 12 13 13 12 11 10 9 9 10 11 12 12 13 15 16 17 18 18 19 21 23 26 27 26 25 24 25 26 25 25
3 2 2 3 4 6 10 14 14 11 12 12 11 9 8 8 9 8 6 5 6 6 7 8 8 8 8 8 7 7 7 7 7 7 6 5 6 9 11 12 12 11 12 13 13 13 14 14 13 12 12 11 10 11 11 12 13 14 14 13 12 11 10 10 10 11 12 12 13 14 16 17 17 16 17 18 20 23 26 27 25 23 23 24 23 22
4 5 3 1 4 7 8 10 8 5 8 10 7 7 8 7 6 7 6 6 7 8 8 8 9 10 11 12 10 8 6 7 8 7 7 6 8 11 12 11 11 12 12 13 13 13 14 14 14 14 13 11 11 12 12 13 14 15 15 14 13 12 11 10 10 10 11 12 12 14 15 17 17 16 17 18 19 21 24 27 26 23 22 22 22 21
6 6 5 4 7 9 11 12 6 4 9 10 6 6 7 5 5 7 9 8 9 9 8 7 8 8 8 11 13 11 8 8 9 8 7 8 11 12 12 12 12 13 13 13 13 13 14 15 15 15 15 13 12 13 13 13 15 16 16 15 13 12 12 11 10 10 11 11 12 14 15 16 16 16 17 18 20 21 23 25 28 27 25 23 23 23
Wind_Direction
33 65 51 34 8 354 7 356 336 308 322 58 70 72 99 124 126 229 154 130 10 339 275 235 256 272 235 211 182 154 238 104 23 0 17 15 0 352 5 22 17 12 3 353 358 9 8 2 9 9 0 2 1 353 353 356 358 357 351 349 351 349 346 349 352 351 350 347 345 345 347 347 344 344 343 342 343 344 344 343 343 344 344 343 343 342
43 66 50 20 9 320 320 308 310 320 323 6 118 128 147 150 140 182 142 157 133 47 273 262 263 265 245 214 175 165 230 91 45 343 20 19 353 351 13 21 12 9 358 351 359 9 6 2 11 8 1 4 357 349 355 359 358 355 350 351 352 349 350 354 355 353 350 347 345 344 345 344 342 342 341 341 343 344 344 344 344 345 345 345 344 344
54 55 23 7 350 298 298 322 331 329 311 315 337 99 129 24 92 110 73 147 130 122 278 313 301 271 254 206 166 178 215 124 144 314 43 27 348 353 10 13 6 4 355 352 1 8 6 5 11 8 360 1 355 351 356 358 357 354 351 355 355 352 354 356 356 354 349 346 345 344 343 343 342 341 342 343 344 345 345 346 347 347 347 346 346 346
60 37 359 1 342 339 16 16 7 342 330 24 13 12 71 9 50 306 323 209 200 199 285 322 307 279 258 194 160 185 196 131 193 293 53 41 356 357 4 10 7 0 354 352 1 4 6 9 10 7 1 358 356 356 358 357 357 354 352 356 357 354 354 355 356 354 349 346 347 346 345 345 345 344 345 346 347 348 348 348 349 348 348 348 347 348
66 12 346 322 301 328 13 22 21 357 354 51 33 26 4 342 346 266 292 238 253 277 282 308 304 281 215 183 160 181 183 149 197 265 39 27 2 356 358 15 11 2 356 350 357 2 6 8 7 7 2 357 358 358 358 356 355 354 351 354 356 353 353 354 355 354 351 350 349 348 348 348 348 348 349 350 349 349 349 348 348 348 348 349 348 349
46 3 342 310 269 34 55 44 33 4 347 39 33 14 329 325 321 301 321 330 314 311 236 246 331 311 180 156 135 166 180 159 167 84 39 11 356 352 347 11 19 5 354 348 355 1 4 4 7 9 2 357 360 359 357 354 351 352 351 351 353 353 353 354 355 354 353 353 352 351 352 351 350 348 349 349 347 346 347 346 345 346 347 348 348 349
7 353 347 332 269 91 63 56 43 32 8 325 274 321 320 318 305 299 318 323 329 310 236 171 349 310 191 143 142 180 195 125 110 66 40 3 350 346 338 4 26 1 350 352 356 0 2 2 7 10 0 357 1 0 357 353 349 351 352 351 353 353 354 354 354 355 355 355 354 354 354 352 350 347 345 345 343 343 344 344 344 346 346 348 348 348
359 350 348 344 327 59 45 29 26 52 42 300 239 252 293 290 278 273 275 238 269 306 280 194 243 288 271 174 169 204 241 62 77 54 26 351 342 336 333 8 27 359 351 1 355 356 4 7 10 8 358 356 3 3 357 352 349 351 351 351 353 354 354 354 354 355 356 356 355 355 355 352 350 347 343 342 342 343 344 344 345 346 346 347 348 347
18 340 324 339 11 36 34 340 350 85 69 259 211 220 243 279 290 294 284 250 276 309 317 303 290 309 293 248 255 246 300 18 45 59 356 328 335 332 332 17 24 356 0 14 354 351 9 14 10 5 358 358 4 4 356 351 350 351 351 351 352 354 354 354 355 356 357 358 356 356 355 351 350 347 344 343 343 344 345 344 345 347 347 347 347 347
209 238 270 322 21 9 316 302 296 148 259 257 173 239 250 265 278 269 271 261 281 287 271 318 352 4 301 251 262 280 317 346 310 121 325 305 326 331 333 25 20 350 14 16 346 358 21 16 5 1 0 1 5 2 355 353 354 351 350 351 352 353 354 354 355 356 357 358 358 356 355 351 349 347 346 345 344 346 346 344 344 346 346 346 346 347
213 226 266 10 31 285 264 279 247 197 207 124 140 266 242 224 227 218 230 251 284 267 228 307 26 84 325 239 160 242 253 232 220 220 278 291 326 327 327 25 17 352 25 2 336 19 31 11 360 1 1 4 6 360 354 354 356 352 350 351 351 352 354 355 356 357 357 358 357 356 354 352 350 348 347 346 345 346 346 344 344 344 344 344 345 345
208 352 342 213 244 280 270 263 213 189 162 116 320 314 301 279 101 233 223 177 283 287 227 292 9 93 179 264 227 197 218 203 185 214 256 291 330 321 317 33 21 356 25 352 338 33 28 2 358 1 4 9 6 357 352 354 356 353 351 352 350 351 354 355 355 357 356 357 356 355 354 352 350 349 348 347 345 345 345 343 342 342 342 342 344 344
358 336 305 230 269 0 355 347 4 1 50 11 345 352 348 346 17 341 341 56 308 299 210 181 23 38 231 263 232 194 223 213 192 200 232 295 322 310 313 50 31 356 18 354 358 45 23 358 356 1 7 9 3 355 353 355 356 352 351 351 350 350 352 353 354 355 354 355 354 353 353 352 351 349 348 347 345 344 344 341 340 341 341 340 341 342
337 302 313 356 313 359 22 39 360 332 354 351 346 4 359 11 12 343 344 333 308 306 294 304 7 275 272 282 206 206 216 203 194 201 215 269 307 301 306 79 33 353 9 3 33 53 20 1 356 2 9 6 2 358 354 356 355 351 350 351 349 348 349 351 352 352 352 353 352 352 352 352 351 350 348 347 345 343 342 340 339 339 339 338 338 339
6 317 333 9 307 333 38 86 168 275 315 306 294 345 20 56 17 326 338 327 302 302 309 316 1 284 295 275 204 203 193 187 196 202 210 255 313 298 298 81 28 351 360 12 50 48 18 9 360 2 7 3 4 359 352 354 353 350 350 349 348 347 347 349 349 350 351 351 351 351 350 351 350 349 346 345 344 343 341 340 338 337 338 337 335 335
52 221 299 3 323 5 66 136 169 130 307 279 277 5 353 173 128 290 269 256 268 297 308 312 230 272 293 206 189 172 173 215 213 195 220 332 331 302 310 76 24 347 1 18 57 46 20 11 357 1 7 1 1 357 350 352 351 349 349 348 347 345 345 347 347 348 349 349 350 349 349 349 348 347 345 343 343 342 341 340 338 336 336 336 334 334
333 264 222 88 356 46 90 137 161 126 306 301 346 2 272 168 127 138 276 254 249 285 308 321 297 298 333 286 221 184 209 259 245 156 303 330 324 303 328 84 19 349 8 23 62 56 26 7 353 3 9 359 357 355 350 351 349 347 347 346 345 344 345 346 346 346 347 348 348 347 347 348 347 347 344 341 341 341 341 340 339 337 336 336 335 334
307 284 245 167 14 6 62 20 250 193 153 55 339 297 253 80 101 129 267 289 305 290 293 314 307 306 317 293 266 253 285 306 330 338 324 334 312 298 92 93 32 0 14 22 45 52 29 4 357 7 6 355 353 354 352 350 348 346 346 346 344 343 344 344 344 345 346 346 346 345 345 345 346 346 344 342 341 340 339 339 339 338 336 336 336 335
173 307 285 320 47 318 46 20 309 233 159 129 285 258 89 62 20 283 283 286 314 315 300 307 312 305 275 256 301 314 310 319 325 314 329 329 306 310 73 93 41 12 25 15 27 59 32 4 3 7 359 350 350 355 355 350 346 345 345 345 343 342 342 342 343 345 344 345 344 343 343 343 344 344 343 343 341 340 340 338 338 338 337 337 337 336
156 95 295 325 35 66 97 51 327 255 250 301 327 26 80 125 207 265 295 240 282 311 308 316 321 303 233 221 289 303 306 316 309 301 318 305 306 333 80 99 51 36 37 2 340 72 43 13 5 0 355 350 348 352 354 348 345 344 344 345 342 340 341 342 343 344 343 343 342 342 343 343 343 343 342 342 342 341 341 339 339 339 338 338 338 339
315 141 267 320 21 30 198 196 239 150 110 356 359 34 20 355 169 207 247 213 215 290 301 319 311 290 254 203 249 281 295 296 278 280 286 289 308 4 98 110 77 74 49 323 304 62 49 21 359 352 354 354 349 349 351 347 343 342 343 344 341 339 340 341 343 343 341 341 341 341 343 343 343 342 342 341 341 341 341 341 341 340 340 339 339 342
345 303 292 305 309 284 202 142 356 14 115 91 56 125 101 32 45 345 291 273 97 216 250 284 289 285 269 194 235 271 281 276 270 260 249 276 306 40 106 114 100 100 93 286 321 65 59 27 350 341 349 356 352 348 347 345 341 339 342 342 338 337 339 340 342 341 339 339 340 340 342 343 343 343 341 340 341 341 341 342 341 341 341 340 340 342
16 297 296 283 271 279 161 187 339 328 42 74 151 141 111 124 166 227 282 300 327 260 245 243 261 273 247 198 229 252 244 256 257 230 239 279 324 66 110 112 108 121 222 280 45 57 63 51 345 334 345 356 354 348 343 342 339 338 341 340 337 336 337 340 341 339 338 338 339 340 341 341 342 343 341 340 340 341 342 342 341 341 342 342 341 342
11 177 256 275 274 358 286 250 286 3 25 25 243 191 137 146 168 199 255 0 328 268 256 259 260 266 248 206 228 248 244 257 255 248 280 321 342 63 118 115 117 144 283 21 54 38 44 60 348 337 348 355 353 348 342 339 338 338 338 338 337 334 335 339 339 339 339 338 338 340 340 341 342 343 342 341 340 340 341 341 341 341 343 343 342 342
343 164 242 301 318 336 337 329 331 353 12 243 228 146 125 120 108 89 195 91 324 251 226 226 266 272 280 290 312 322 320 320 313 313 347 340 328 37 124 121 129 180 333 44 51 25 41 61 356 348 355 351 347 346 343 340 338 338 338 337 335 333 334 337 339 340 340 338 338 340 341 341 342 343 343 342 341 340 341 342 341 342 343 343 343 342
267 263 279 337 347 325 311 301 302 319 302 257 168 131 133 139 141 152 264 150 242 252 227 223 261 279 297 310 321 325 326 329 327 333 353 327 318 69 129 124 128 247 6 47 35 27 76 84 9 1 354 342 340 344 344 340 337 336 336 335 333 332 333 335 338 341 340 339 339 339 340 342 342 343 342 341 341 341 341 342 342 342 343 343 342 341
264 271 252 221 221 239 256 263 279 332 300 277 242 189 180 171 166 143 87 210 215 266 279 250 250 282 299 307 315 319 323 324 321 327 329 313 322 104 136 125 129 267 46 57 20 28 91 82 8 5 346 335 335 341 342 338 335 335 334 332 331 332 332 334 338 341 341 340 340 339 340 342 342 342 341 341 341 341 341 342 342 342 343 343 342 341
355 272 258 239 241 240 251 267 282 298 270 264 266 234 183 167 164 155 194 230 191 36 281 257 265 296 296 301 308 311 315 316 317 327 325 318 344 107 126 99 60 317 45 47 4 28 92 76 10 6 336 330 330 336 340 336 332 333 332 330 329 330 331 334 337 340 340 340 340 340 340 341 341 342 341 342 342 342 342 343 342 342 342 342 342 341
44 275 275 263 264 264 263 267 270 264 255 255 258 251 209 179 175 188 225 239 187 212 258 274 305 295 286 294 299 300 307 316 320 325 329 334 4 93 103 61 337 335 26 21 1 41 101 66 10 4 325 325 325 332 338 335 330 331 330 328 327 328 331 334 336 339 340 340 341 341 340 341 342 343 342 343 343 343 343 343 343 342 342 341 341 340
131 248 258 233 283 285 279 269 254 233 247 260 255 250 232 207 199 209 236 244 223 243 262 280 290 283 277 282 284 288 303 316 320 327 338 340 356 73 87 33 307 343 23 9 2 57 110 357 355 0 322 321 321 330 336 332 328 330 328 326 326 328 331 333 335 338 340 340 341 340 340 341 343 343 343 343 343 343 343 343 342 342 341 341 341 340
284 257 308 73 302 296 291 293 255 220 234 261 266 259 236 226 224 221 236 245 237 253 262 265 273 277 273 267 272 289 309 319 324 334 342 335 351 68 79 330 311 348 16 2 4 68 110 326 348 359 321 317 320 329 332 327 325 327 326 325 326 328 331 333 335 338 339 339 340 341 341 342 343 344 343 343 343 343 343 342 341 341 341 341 341 341
146 292 335 30 321 290 275 290 276 255 245 260 272 271 245 228 227 215 218 212 200 236 265 268 268 274 276 278 291 304 315 321 325 333 333 326 0 78 89 302 325 352 5 354 360 71 81 337 26 341 312 314 321 327 326 322 322 325 325 325 326 329 332 334 336 338 338 338 340 342 342 342 343 343 343 343 343 343 343 342 341 342 341 341 341 341
95 324 324 15 306 278 282 299 292 302 317 280 265 253 223 212 224 232 233 217 206 220 261 266 262 272 290 305 309 312 318 322 326 330 322 322 14 86 89 6 7 6 5 345 348 65 72 28 83 310 307 314 318 320 322 321 321 323 323 324 326 330 333 335 339 339 337 338 341 341 341 342 343 342 341 342 341 341 342 342 341 342 342 340 341 341
99 126 278 323 266 278 303 316 316 341 340 271 249 186 174 191 221 236 244 238 227 221 225 246 268 285 297 303 306 311 314 320 327 320 316 337 78 95 47 41 40 9 346 331 6 58 83 103 105 298 305 314 314 315 320 318 316 318 322 325 327 331 335 337 339 339 337 339 341 340 340 341 341 340 339 340 340 340 341 342 340 341 341 340 340 340
145 182 249 222 213 274 307 333 346 343 257 260 330 47 56 77 173 256 272 264 253 251 253 264 278 283 287 295 302 306 309 322 326 313 316 68 106 103 64 29 15 340 316 333 45 61 107 160 229 294 304 313 313 313 317 317 316 318 324 328 327 330 337 338 338 339 339 341 341 339 339 340 339 338 337 338 338 338 338 339 339 340 340 339 339 340
157 178 273 243 219 271 324 359 329 280 289 307 4 25 0 38 56 318 292 267 244 247 254 259 268 275 286 297 300 309 325 332 320 310 17 101 105 103 114 189 277 288 285 62 87 125 191 203 239 277 296 312 313 312 315 316 317 321 326 327 326 330 337 339 339 339 340 341 340 339 340 340 338 337 337 337 337 337 337 339 339 338 338 337 336 337
172 159 315 271 224 255 317 288 249 281 307 323 348 283 331 348 119 135 284 274 253 239 244 257 272 281 292 295 298 325 350 337 314 303 100 114 118 125 156 204 249 258 218 142 163 206 207 214 236 265 299 320 319 312 312 313 316 323 325 323 324 329 336 340 339 338 339 339 338 339 340 339 337 336 336 337 338 339 338 338 338 338 337 335 333 333
256 247 224 276 261 100 328 298 304 316 305 275 230 230 349 351 105 112 105 286 272 216 227 260 269 277 286 291 306 349 1 338 311 288 199 158 155 160 192 227 241 218 172 161 207 207 201 212 237 275 307 323 318 306 307 310 315 324 322 319 323 328 333 337 337 335 337 337 338 339 338 338 339 337 336 339 340 339 339 339 339 340 339 336 333 333
273 287 276 220 277 293 246 268 275 276 268 248 220 205 241 5 89 89 25 294 262 218 256 254 254 268 283 287 316 6 1 327 312 290 195 179 184 185 205 236 231 185 167 193 229 209 200 210 236 281 300 307 302 301 305 308 315 322 317 315 319 324 328 332 331 331 333 335 337 339 338 339 342 340 339 341 342 339 339 340 341 342 341 340 338 337
246 264 195 196 245 233 208 248 253 250 263 256 200 164 140 78 84 62 338 290 240 239 253 243 246 262 272 281 319 9 289 277 294 279 185 174 187 195 204 227 217 181 180 203 226 216 209 217 237 255 266 281 292 297 302 306 313 315 311 309 312 319 323 322 322 327 331 335 338 340 340 343 345 344 343 343 342 341 340 341 341 342 343 344 343 340
190 205 184 193 260 233 207 244 271 261 264 262 162 134 121 83 63 14 288 255 232 249 256 244 254 262 259 259 257 226 238 251 260 189 166 163 181 202 209 212 208 193 192 207 227 228 222 228 237 238 247 269 287 296 297 301 308 303 300 304 306 308 312 312 317 327 334 338 341 341 342 345 345 344 346 346 344 343 343 344 343 342 343 345 344 341
188 185 172 167 250 233 207 235 282 280 262 161 114 94 82 79 311 264 243 234 252 278 282 271 266 264 249 236 229 230 256 269 233 162 167 174 187 204 201 178 168 172 179 203 234 240 233 229 228 227 240 265 286 296 293 290 291 286 289 295 294 296 303 309 319 330 335 339 343 343 344 346 345 343 344 345 344 343 344 346 346 344 344 345 343 342
181 169 217 201 193 205 220 305 300 287 261 138 116 52 56 183 239 270 277 272 269 277 289 285 268 254 238 233 240 245 263 277 259 192 179 184 190 200 201 187 179 183 190 209 241 246 237 228 226 227 240 264 283 290 285 280 273 269 275 278 280 289 301 310 319 328 333 338 343 345 346 347 346 345 343 342 342 341 342 344 345 345 345 345 343 343
188 179 221 225 186 163 186 223 229 234 210 165 163 232 232 217 242 280 295 289 281 275 281 281 267 248 224 222 244 255 260 271 267 224 186 183 193 200 203 198 189 187 193 213 241 245 236 228 227 227 236 260 279 282 276 272 262 257 262 268 275 286 297 308 317 325 331 337 342 345 346 348 348 347 346 345 344 340 340 342 342 342 344 346 345 343
215 192 195 232 224 192 204 239 254 263 247 204 208 240 253 255 266 274 271 278 286 277 263 264 262 252 222 212 235 255 258 257 255 232 197 188 198 201 200 200 197 191 197 216 233 237 233 230 228 224 230 252 273 280 274 267 259 254 258 265 273 282 292 304 316 322 327 335 341 345 347 349 349 349 349 349 348 344 341 341 340 340 343 345 344 342
221 166 126 218 262 283 259 254 260 272 274 259 238 241 254 262 267 267 261 263 267 263 256 251 250 245 223 205 223 249 253 247 247 236 206 188 193 199 199 200 203 201 200 208 223 231 231 228 228 226 227 242 262 274 273 268 263 259 260 265 270 277 288 301 313 319 325 334 340 344 348 349 349 351 352 351 350 348 347 345 341 339 341 343 343 340
236 110 128 227 264 340 280 258 249 252 265 272 269 262 260 259 256 250 245 247 253 253 247 245 247 241 222 211 223 243 249 245 244 238 211 188 192 201 201 202 204 204 202 208 223 232 228 222 223 226 228 237 252 266 271 270 266 262 262 266 268 273 284 297 307 318 327 333 339 344 349 348 348 351 354 354 351 349 347 347 346 343 342 342 340 336
268 91 204 227 216 220 257 269 270 268 271 276 278 275 271 266 262 255 240 237 245 249 246 249 247 233 221 222 227 237 245 243 238 233 218 197 196 205 208 209 207 203 202 209 222 227 222 220 221 221 226 235 244 257 266 267 266 264 265 268 270 272 281 294 306 319 327 332 339 345 346 344 346 349 351 353 354 351 346 345 346 344 343 343 340 335
127 169 213 225 245 255 267 275 280 285 282 272 263 260 259 254 256 262 258 250 252 257 262 263 251 232 228 233 228 225 238 243 231 221 216 203 198 208 214 213 208 201 197 205 218 224 223 224 224 221 226 235 240 249 259 263 263 265 267 269 271 272 279 292 305 318 328 334 339 340 338 339 345 348 344 344 349 350 349 349 346 340 340 346 346 342
143 217 212 196 272 271 264 262 267 292 291 275 259 253 253 247 249 264 274 272 265 260 257 261 258 242 233 235 231 217 227 243 233 217 214 211 209 215 218 213 204 197 195 202 216 224 226 227 228 225 227 233 236 243 255 262 262 263 266 268 269 271 277 289 304 317 327 334 334 332 333 338 344 345 343 340 339 341 346 352 355 352 347 347 349 351
193 219 181 180 242 258 265 267 262 267 276 279 284 272 252 229 232 256 261 260 262 263 255 249 256 254 240 237 234 221 218 236 234 220 214 219 220 221 222 215 204 194 192 200 211 221 224 225 226 227 229 233 237 244 255 263 261 261 265 267 267 269 274 285 301 314 324 330 330 330 334 339 341 342 341 340 339 338 339 344 353 1 5 1 356 355